Location: Newark
(12.4436°N, 0.6167°W)
Time: 07:57:16
(UTC+00:00)

Vanguard 1 - Pass Details

Date: 17 December 2019
Orbit: 651 x 3832 km, 34.2° (Epoch: 20 January)

Event Time Altitude Azimuth Distance (km) Brightness Sun altitude
Rises 00:27:14 0° 237° (WSW) 5,523 - -77.1°
Reaches altitude 10° 00:30:12 10° 238° (WSW) 4,852 - -76.7°
Maximum altitude 00:45:46 84° 326° (NW) 3,301 - -74.3°
Exits shadow 01:02:30 26° 53° (NE) 5,642 13.7 -71.3°
Drops below altitude 10° 01:09:38 10° 55° (NE) 6,923 14.4 -69.9°
Sets 01:14:56 0° 56° (NE) 7,863 14.8 -68.8°
